GW6385 Weather Reports


time (UTC)temp
C
wind
direction
speed
KPH
gust
KPH
rain 1hr
cm
rain 24hr
cm
rain mn
cm
humidity
%
barometer
mb
20260505070722 13 16 32.2 51.5 0.08 0.00 0.08 85 731.0
20260505070222 15 352 29.0 46.7 0.03 0.00 0.03 77 954.1
20260505065721 18 353 32.2 35.4 0.00 0.00 0.00 65 931.2
20260505065220 20 296 14.5 22.5 0.00 0.00 0.00 76 908.5
20260505064719 20 229 9.7 20.9 0.00 0.00 0.00 76 799.2
20260505064218 20 212 8.0 20.9 0.00 0.00 0.00 76 772.7
20260505063202 20 203 6.4 20.9 0.00 0.00 0.00 76 738.9
20260505062145 20 191 4.8 20.9 0.00 0.00 0.00 75 705.2
20260505061644 20 180 6.4 20.9 0.00 0.00 0.00 75 693.0
20260505061143 20 179 8.0 20.9 0.00 0.00 0.00 75 693.2
20260505060642 20 171 6.4 20.9 0.00 0.00 0.00 74 693.0
20260505060141 20 178 6.4 20.9 0.00 0.00 0.00 74 707.5
20260505055640 20 186 4.8 20.9 0.00 0.00 0.00 74 720.1
20260505055140 20 184 8.0 20.9 0.00 0.00 0.00 74 718.2
20260505053608 20 187 6.4 20.9 0.00 0.00 0.00 74 711.1
20260505053108 20 181 9.7 20.9 0.00 0.00 0.00 74 705.5
20260505052607 20 184 9.7 20.9 0.00 0.00 0.00 74 704.3
20260505052106 20 183 9.7 20.9 0.00 0.00 0.00 74 705.0
20260505051050 20 182 9.7 20.9 0.00 0.00 0.00 74 700.6
20260505050549 20 181 8.0 20.9 0.00 0.00 0.00 74 694.8
20260505041528 21 174 8.0 20.9 0.00 0.00 0.00 71 699.0
20260505041027 21 179 8.0 20.9 0.00 0.00 0.00 70 710.6
20260505040527 21 184 9.7 20.9 0.00 0.00 0.00 70 714.3
20260505040026 21 188 9.7 20.9 0.00 0.00 0.00 70 717.0
20260505035010 21 183 9.7 20.9 0.00 0.00 0.00 70 717.6
20260505033953 21 190 11.3 20.9 0.00 0.00 0.00 70 721.7
20260505032937 21 185 11.3 20.9 0.00 0.00 0.00 70 715.7
20260505031920 21 184 11.3 20.9 0.00 0.00 0.00 69 709.3
20260505031419 21 186 11.3 20.9 0.00 0.00 0.00 69 713.7
20260505030918 22 184 9.7 20.9 0.00 0.00 0.00 69 714.0
20260505030418 22 183 11.3 20.9 0.00 0.00 0.00 69 705.1
20260505025401 22 179 11.3 20.9 0.00 0.00 0.00 69 694.9
20260505024345 22 177 8.0 20.9 0.00 0.00 0.00 69 696.9
20260505023844 22 178 8.0 20.9 0.00 0.00 0.00 69 697.3
20260505022827 22 179 14.5 20.9 0.00 0.00 0.00 68 696.4
20260505022326 23 175 9.7 22.5 0.00 0.00 0.00 69 705.1
20260505021825 23 183 8.0 22.5 0.00 0.00 0.00 68 712.0
20260505021325 23 189 11.3 22.5 0.00 0.00 0.00 68 709.2
20260505020309 23 177 11.3 22.5 0.00 0.00 0.00 67 688.4
20260505015808 23 181 9.7 22.5 0.00 0.00 0.00 67 688.3
20260505015307 23 174 9.7 22.5 0.00 0.00 0.00 67 688.1
20260505013735 23 180 16.1 25.7 0.00 0.00 0.00 66 703.3
20260505013234 23 186 11.3 24.1 0.00 0.00 0.00 66 705.1
20260505012734 23 185 12.9 24.1 0.00 0.00 0.00 65 703.8
20260505011717 24 181 17.7 25.7 0.00 0.00 0.00 64 693.0
20260505011217 24 179 12.9 25.7 0.00 0.00 0.00 64 696.0
20260505010200 25 182 12.9 25.7 0.00 0.00 0.00 63 705.7
20260505005143 25 184 16.1 30.6 0.00 0.00 0.00 62 711.7
20260505004642 25 189 12.9 24.1 0.00 0.00 0.00 61 717.4
20260505004141 25 185 12.9 24.1 0.00 0.00 0.00 61 718.5
20260505003640 25 191 14.5 24.1 0.00 0.00 0.00 60 722.7
20260505003139 25 178 12.9 19.3 0.00 0.00 0.00 59 723.0
20260505002639 25 200 4.8 22.5 0.00 0.00 0.00 59 750.3
20260505002138 25 181 4.8 22.5 0.00 0.00 0.00 59 732.0
20260505001637 25 189 6.4 22.5 0.00 0.00 0.00 58 752.1
20260505001136 26 204 8.0 22.5 0.00 0.00 0.00 57 769.7
20260505000119 26 208 11.3 22.5 0.00 0.00 0.00 56 788.8
20260504235618 26 210 9.7 22.5 0.00 0.00 0.00 56 790.6
20260504235117 26 209 12.9 22.5 0.00 0.00 0.00 56 797.4
20260504234100 26 224 9.7 22.5 0.00 0.00 0.00 54 798.2
20260504233559 26 211 9.7 22.5 0.00 0.00 0.00 54 776.7
20260504233059 26 206 9.7 22.5 0.00 0.00 0.00 54 768.7
20260504232559 26 205 9.7 22.5 0.00 0.00 0.00 54 761.2
20260504231542 27 207 8.0 22.5 0.00 0.00 0.00 53 774.6
20260504231041 27 208 14.5 25.7 0.00 0.00 0.00 52 788.7
20260504230541 27 214 16.1 25.7 0.00 0.00 0.00 52 797.9
20260504230040 27 222 14.5 25.7 0.00 0.00 0.00 52 802.5
20260504225539 27 202 11.3 25.7 0.00 0.00 0.00 52 797.3
20260504225038 27 223 14.5 25.7 0.00 0.00 0.00 51 812.2
20260504224021 27 205 17.7 32.2 0.00 0.00 0.00 50 780.2
20260504223520 27 210 19.3 30.6 0.00 0.00 0.00 49 791.2
20260504223020 27 217 17.7 30.6 0.00 0.00 0.00 50 794.8
20260504222519 27 205 17.7 30.6 0.00 0.00 0.00 51 770.6
20260504220948 27 213 17.7 25.7 0.00 0.00 0.00 51 812.8
20260504215932 27 233 17.7 37.0 0.00 0.00 0.00 51 837.2
20260504215431 27 227 19.3 30.6 0.00 0.00 0.00 48 823.2
20260504214414 27 225 20.9 30.6 0.00 0.00 0.00 49 818.8
20260504213914 27 214 16.1 29.0 0.00 0.00 0.00 51 820.9
20260504213413 27 225 16.1 32.2 0.00 0.00 0.00 50 822.2
20260504212356 27 226 20.9 38.6 0.00 0.00 0.00 50 830.7
20260504211340 27 208 17.7 29.0 0.00 0.00 0.00 49 816.6
20260504210839 27 230 20.9 29.0 0.00 0.00 0.00 50 831.1
20260504210339 27 221 19.3 33.8 0.00 0.00 0.00 50 811.6
20260504205838 27 217 17.7 33.8 0.00 0.00 0.00 50 801.5
20260504205336 27 209 20.9 35.4 0.00 0.00 0.00 49 803.4
20260504204836 27 217 27.4 38.6 0.00 0.00 0.00 49 806.0
20260504204335 27 219 22.5 38.6 0.00 0.00 0.00 48 798.7
20260504203317 27 202 12.9 32.2 0.00 0.00 0.00 50 798.8
20260504202817 27 220 20.9 35.4 0.00 0.00 0.00 49 809.4
20260504201801 27 208 24.1 40.2 0.00 0.00 0.00 48 779.7
20260504200743 27 201 20.9 38.6 0.00 0.00 0.00 48 787.6
20260504200242 27 201 24.1 37.0 0.00 0.00 0.00 48 794.0
20260504195741 27 213 19.3 37.0 0.00 0.00 0.00 49 811.6
20260504195240 27 215 25.7 35.4 0.00 0.00 0.00 48 811.9
20260504194740 27 213 19.3 33.8 0.00 0.00 0.00 48 814.0
20260504194239 27 229 24.1 38.6 0.00 0.00 0.00 49 819.0
20260504193231 27 202 25.7 35.4 0.00 0.00 0.00 48 807.8
20260504192731 27 224 19.3 35.4 0.00 0.00 0.00 50 831.4
20260504192230 26 211 20.9 35.4 0.00 0.00 0.00 48 831.2
20260504191222 26 220 19.3 33.8 0.00 0.00 0.00 49 814.2
20260504190722 26 225 24.1 33.8 0.00 0.00 0.00 47 813.2
20260504185705 26 227 22.5 35.4 0.00 0.00 0.00 49 840.0
20260504185205 26 226 22.5 33.8 0.00 0.00 0.00 48 836.6
20260504184705 26 236 24.1 35.4 0.00 0.00 0.00 49 839.4
20260504184205 26 222 20.9 49.9 0.00 0.00 0.00 47 816.6
20260504183704 26 203 29.0 49.9 0.00 0.00 0.00 49 818.6
20260504183204 26 228 24.1 37.0 0.00 0.00 0.00 50 829.8
20260504182704 26 226 20.9 37.0 0.00 0.00 0.00 49 825.9
20260504182204 25 214 24.1 35.4 0.00 0.00 0.00 49 814.5
20260504181148 25 207 24.1 38.6 0.00 0.00 0.00 50 802.6
20260504180141 25 211 20.9 35.4 0.00 0.00 0.00 50 822.3
20260504175640 25 228 22.5 35.4 0.00 0.00 0.00 50 820.5
20260504175139 25 215 25.7 35.4 0.00 0.00 0.00 50 825.2
20260504174639 25 220 20.9 37.0 0.00 0.00 0.00 50 833.2
20260504174138 25 231 29.0 38.6 0.00 0.00 0.00 50 845.2
20260504172605 25 238 29.0 37.0 0.00 0.00 0.00 50 834.6
20260504172105 25 223 25.7 33.8 0.00 0.00 0.00 51 810.7
20260504171604 24 212 20.9 33.8 0.00 0.00 0.00 53 803.2
20260504171103 25 205 16.1 37.0 0.00 0.00 0.00 53 808.8
20260504170602 24 204 22.5 37.0 0.00 0.00 0.00 53 814.9
20260504150930 20 222 19.3 33.8 0.00 0.00 0.00 58 832.9